Weather History for Bismarck, ND

Change the Weather History Date:

Monday, December 31, 2012

  Actual Average Record
Temperature  
Mean Temperature 4 °F 13 °F  
Max Temperature 11 °F 23 °F 52 °F (1963)
Min Temperature -4 °F 3 °F -43 °F (1967)
Degree Days  
Heating Degree Days 61 52  
Month to date heating degree days 1532 1514  
Since 1 July heating degree days 3529 3500  
Cooling Degree Days 0 0  
Month to date cooling degree days 0 0  
Year to date cooling degree days 599 520  
Moisture  
Dew Point 0 °F    
Average Humidity 81    
Maximum Humidity 95    
Minimum Humidity 67    
Precipitation  
Precipitation T in 0.02 in 0.37 in (1975)
Month to date precipitation 0.63 0.49  
Year to date precipitation 14.90 17.85  
Snow  
Snow T in 0.30 in 4.00 in (1975)
Month to date snowfall 11.7 9.3  
Since 1 July snowfall 22.2 20.5  
Snow Depth 7.00 in    
Sea Level Pressure  
Sea Level Pressure 30.25 in    
Wind  
Wind Speed 5 mph (ENE)    
Max Wind Speed 10 mph    
Max Gust Speed 12 mph    
Visibility 9 miles    
Events Snow    
T = Trace of Precipitation, MM = Missing Value Source: NWS Daily Summary

Daily Weather History Graph

Daily Weather History Graph

Search for Another Location

Airport:

Trip Planner

Search our weather history database for the weather conditions in past years. The results will help you decide how hot, cold, wet, or windy it might be!

Date:

Astronomy

Dec. 31, 2012 Rise Set
Actual Time 8:27 AM CST 5:04 PM CST
Civil Twilight 7:52 AM CST 5:39 PM CST
Nautical Twilight 7:14 AM CST 6:18 PM CST
Astronomical Twilight 6:37 AM CST 6:55 PM CST
Moon 8:51 PM CST (12/31) 9:57 AM CST (12/31)
Length of Visible Light 9h 47m
Length of Day
8h 36m
Waning Gibbous, 90% of the Moon is Illuminated
Dec 31
Waning Gibbous
Jan 4
Last Quarter
Jan 11
New
Jan 18
First Quarter
Jan 26
Full

Hourly Weather History & Observations

Time (CST) Temp. Windchill Dew Point Humidity Pressure Visibility Wind Dir Wind Speed Gust Speed Precip Events Conditions
12:52 AM 9.0 °F -3.2 °F 1.9 °F 73% 30.25 in 10.0 mi NNW 8.1 mph - N/A   Overcast
1:52 AM 7.0 °F -4.5 °F 1.0 °F 77% 30.26 in 10.0 mi WNW 6.9 mph - N/A   Overcast
2:52 AM 6.1 °F -5.6 °F -0.0 °F 76% 30.27 in 10.0 mi NW 6.9 mph - N/A   Overcast
3:52 AM 6.1 °F -4.3 °F -0.0 °F 76% 30.28 in 10.0 mi NNW 5.8 mph - N/A   Overcast
4:52 AM 7.0 °F 0.1 °F 1.0 °F 77% 30.29 in 10.0 mi NNE 3.5 mph - N/A   Overcast
5:52 AM 7.0 °F 0.1 °F 1.0 °F 77% 30.29 in 10.0 mi WNW 3.5 mph - N/A   Overcast
6:19 AM 7.0 °F - 1.0 °F 77% 30.19 in 10.0 mi Calm Calm - N/A   Overcast
6:52 AM 6.1 °F - 1.0 °F 80% 30.29 in 10.0 mi Calm Calm - N/A   Overcast
7:23 AM 6.1 °F -0.9 °F 1.0 °F 80% 30.18 in 9.0 mi East 3.5 mph - N/A   Overcast
7:52 AM 6.1 °F - 1.0 °F 80% 30.29 in 10.0 mi Calm Calm - N/A   Overcast
8:52 AM 5.0 °F -2.1 °F 1.0 °F 84% 30.29 in 10.0 mi East 3.5 mph - N/A   Overcast
9:52 AM 5.0 °F -5.6 °F 1.0 °F 84% 30.29 in 4.0 mi East 5.8 mph - 0.00 in Snow Light Snow
10:21 AM 5.0 °F -5.6 °F 1.0 °F 84% 30.18 in 6.0 mi East 5.8 mph - 0.00 in   Overcast
10:52 AM 5.0 °F -6.9 °F 1.0 °F 84% 30.31 in 5.0 mi East 6.9 mph - 0.00 in   Overcast
11:17 AM 3.9 °F -9.4 °F -0.0 °F 84% 30.19 in 4.0 mi East 8.1 mph - N/A   Overcast
11:52 AM 5.0 °F -6.9 °F 1.0 °F 84% 30.30 in 6.0 mi East 6.9 mph - N/A   Overcast
12:52 PM 5.0 °F -6.9 °F 1.0 °F 84% 30.29 in 3.0 mi ENE 6.9 mph - 0.00 in Snow Light Snow
1:52 PM 6.1 °F -5.6 °F 1.0 °F 80% 30.27 in 3.0 mi ENE 6.9 mph - 0.00 in Snow Light Snow
2:40 PM 7.0 °F -3.3 °F 1.9 °F 80% 30.13 in 10.0 mi NE 5.8 mph - 0.00 in   Overcast
2:52 PM 7.0 °F -1.7 °F 1.9 °F 80% 30.26 in 10.0 mi ENE 4.6 mph - 0.00 in   Overcast
3:52 PM 8.1 °F -2.0 °F 1.9 °F 76% 30.26 in 10.0 mi ENE 5.8 mph - N/A   Overcast
4:52 PM 7.0 °F -4.5 °F 3.0 °F 84% 30.26 in 10.0 mi East 6.9 mph - N/A   Overcast
5:52 PM 7.0 °F -3.3 °F 3.0 °F 84% 30.27 in 10.0 mi East 5.8 mph - N/A   Overcast
6:52 PM 3.9 °F -6.9 °F 1.0 °F 88% 30.27 in 8.0 mi East 5.8 mph - 0.00 in Snow Light Snow
7:18 PM 3.9 °F -5.3 °F 1.0 °F 88% 30.13 in 10.0 mi East 4.6 mph - 0.00 in   Mostly Cloudy
7:36 PM 1.9 °F -9.2 °F -0.9 °F 88% 30.13 in 10.0 mi East 5.8 mph - 0.00 in   Scattered Clouds
7:52 PM -0.0 °F -7.9 °F -2.9 °F 88% 30.27 in 10.0 mi ENE 3.5 mph - 0.00 in   Clear
8:52 PM 1.9 °F -10.6 °F -0.9 °F 88% 30.27 in 10.0 mi NE 6.9 mph - N/A   Clear
9:52 PM 1.0 °F -12.9 °F -2.0 °F 87% 30.27 in 10.0 mi NE 8.1 mph - N/A   Mostly Cloudy
10:52 PM -4.0 °F -14.6 °F -6.0 °F 91% 30.27 in 10.0 mi NE 4.6 mph - N/A   Scattered Clouds
11:52 PM -0.0 °F -9.9 °F -4.0 °F 83% 30.28 in 10.0 mi NE 4.6 mph - N/A   Overcast